Starlink 30295

operational
NORAD ID: 57683 Int'l Des: 2023-124 Owner: SPXS Country: US Constellation: starlink
LEOCIRCULAR

About Starlink 30295

Description loading...

Live Position

Loading 3D Globe...

Upcoming Passes

Altitude History

Altitude vs Time

uPlot chart will show altitude changes over time

Two-Line Element Set

1 57683U 23124W 25305.73798355 .00004715 00000-0 17133-3 0 9998
2 57683 53.1607 81.3929 0001209 66.5220 293.5908 15.30175838123977
Epoch: Nov 1, 2025 • Age: 31 hours

Current Status

Altitude 493.7 km
Velocity 7.62 km/s
Sub-Earth Point -50.82°S, 90.1°W
Launch Date Aug 22, 2023
Age 2.1 years
Type internet

Technical Details

Classification Payload
Mass 730.00 kg
Dry Mass 700.00 kg
Total Mass 730.00 kg
Length 0.30 m
Diameter 4.10 m
Span 29.00 m
Shape Box + pan
Manufacturer SPXS
Bus Type Starlink V2M
Phase Status In Orbit
Owner/State SPXS/US

Large Constellations

Loading constellations...